カタログに戻る

ONEWEB-0542

運用中通信PO
NORAD 54646·PAYLOAD·🇬🇧 United Kingdom

打ち上げ Dec 8, 2022 から Cape Canaveral Space Force Station

Loading…

次のパス (今後24時間)

TLE

最新Source: CelesTrak SupGP

元期: Sep 14, 2026, 16:56 UTC

1 54646C 22166E   26257.70605741  .00001499  00000+0  36351-2 0  2573
2 54646  87.9279 226.1559 0002365  87.2956 308.3829 13.21821712    14

AllMySatでONEWEB-0542をリアルタイム追跡

Download on the App Store